[[{"header":{"parameterUnit":"m.s-1","parameterCategory":1,"la1":30.2991,"la2":30.254,"lo1":-89.0895,"lo2":-89.0444,"dy":0.0017,"dx":0.0017,"nx":28,"ny":28,"refTime":"2024-07-17T21:00:00:Z","depth":0,"parameterNumber":2,"parameterNumberName":"U-component_of_WINDS"},"data":[0,0,0,0,0,0,0,0,0,0,0,0,0,0,0,0,0,0,0,0,0,0,0,0,0,0,0,0,0,0,0,0,0,0,0,0,0,0,0,0,0,0,0,0,0,0,0,0,0,0,0,0,0,0,0,0,0,0,2.73,2.7301,0,2.7396,2.7397,2.7398,2.7407,2.7406,2.7405,2.7405,2.7501,2.7505,2.7508,0,0,0,0,0,0,0,0,0,0,0,0,0,2.7125,2.7128,2.73,2.7301,2.7302,2.7395,2.7397,2.7398,2.7408,2.7406,2.7405,2.7404,2.75,2.7504,2.7508,0,0,0,0,0,0,0,0,0,0,0,0,0,2.7208,2.7129,2.73,2.7318,2.7321,2.7395,2.7397,2.7398,2.7408,2.7406,2.7405,2.7404,2.7499,2.7504,2.7509,2.7571,0,0,2.7525,2.7527,0,0,0,0,0,0,0,0,2.7204,2.7215,2.7315,2.7317,2.732,2.7388,2.737,2.7456,2.7408,2.7375,2.7405,2.7403,2.7465,2.7473,2.7494,2.7575,2.7579,2.7525,2.7528,2.7531,2.7532,0,0,0,0,0,0,0,2.7198,2.7211,2.7338,2.7316,2.732,2.7322,2.7332,2.7387,2.7427,2.7378,2.7379,2.739,2.7466,2.7489,2.7496,2.7581,2.7525,2.753,2.7533,2.7535,2.7716,2.7717,0,0,0,0,0,0,2.7189,2.7206,2.7335,2.7341,2.7257,2.7326,2.7337,2.7368,2.7426,2.7434,2.7391,2.739,2.748,2.749,2.7499,2.7574,2.7531,2.7536,2.7539,2.7714,2.7716,2.7718,0,0,0,0,0,0,2.7185,2.72,2.7331,2.7274,2.729,2.7331,2.7365,2.737,2.7393,2.7436,2.7443,2.7407,2.748,2.7492,2.7552,2.7577,2.7538,2.7543,2.7712,2.7715,2.7717,2.7724,0,0,0,0,0,0,2.718,2.7199,2.7223,2.7274,2.7293,2.7383,2.7366,2.7373,2.7402,2.7402,2.7453,2.746,2.7479,2.7545,2.7558,2.7584,2.7547,2.771,2.7713,2.7716,2.7721,2.7726,2.773,0,0,0,0,0,2.7174,2.7221,2.7224,2.724,2.7325,2.7384,2.7395,2.7417,2.7404,2.7428,2.7456,2.7458,2.7573,2.7551,2.7566,2.7593,2.7709,2.7712,2.7716,2.7719,2.7725,2.773,0,0,0,0,0,0,2.7171,2.7228,2.7232,2.7298,2.7336,2.7386,2.7417,2.7422,2.7465,2.7462,2.7487,2.7499,2.7558,2.7582,2.7556,2.7656,2.7639,2.7646,2.7637,2.7643,2.7647,2.7639,2.7551,0,0,0,0,0,2.7179,2.7223,2.727,2.7323,2.7342,2.7376,2.7403,2.7416,2.7457,2.7473,2.7505,2.7544,2.7589,2.7618,2.7661,2.7726,2.7736,2.7752,2.7757,2.776,2.7765,2.7799,2.7806,2.773,2.773,2.773,0,0,2.7193,2.723,2.7256,2.7324,2.7355,2.7399,2.739,2.7437,2.747,2.748,2.7538,2.7564,2.7609,2.7671,2.77,2.7693,2.7789,2.7765,2.7767,2.777,2.7804,2.7811,2.7817,2.7733,2.7732,2.7732,0,0,2.7243,2.7276,2.7323,2.7355,2.7402,2.7425,2.7436,2.7485,2.7502,2.7561,2.7569,2.7609,2.7686,2.7717,2.7743,2.7805,2.7808,2.7819,2.784,2.7873,2.7879,2.7885,2.7904,2.7912,2.7824,2.7824,2.7824,0,2.7255,2.7323,2.7346,2.7393,2.7422,2.7434,2.7481,2.7511,2.757,2.7589,2.7581,2.7677,2.7709,2.7777,2.7792,2.7814,2.7826,2.7811,2.7877,2.7882,2.7888,2.7907,2.7914,2.7825,2.7824,2.7824,2.7824,0,2.7334,2.7381,2.7413,2.747,2.7503,2.755,2.758,2.761,2.7621,2.7644,2.7703,2.7742,2.7793,2.7811,2.7822,2.7881,2.7875,2.7872,2.7855,2.7895,2.7913,2.7921,2.7826,2.7825,2.7825,2.7825,0,0,2.7383,2.7453,2.7464,2.7489,2.7543,2.7579,2.7626,2.7676,2.7701,2.7742,2.7781,2.7846,2.7843,2.7872,2.7888,2.7917,2.7961,2.791,2.7911,2.7916,2.8026,2.8026,2.8034,2.7964,2.7966,2.7967,2.8021,0,2.7437,2.7521,2.7544,2.7615,2.7657,2.767,2.7711,2.7748,2.7771,2.781,2.7835,2.788,2.7874,2.7892,2.7922,2.7949,2.7983,2.7946,2.7999,2.8001,2.7985,2.8044,2.8045,2.8094,2.8029,2.803,2.8031,0,2.751,2.7552,2.7627,2.7674,2.7693,2.7729,2.7776,2.7814,2.7856,2.7871,2.7904,2.7916,2.7965,2.7949,2.8016,2.799,2.8014,2.8031,2.8033,2.8037,2.8016,2.8047,2.8111,2.8117,2.8043,2.8042,2.8041,0,2.7535,2.761,2.7665,2.7686,2.7744,2.7769,2.7794,2.7834,2.7863,2.7904,2.7922,2.7969,2.7994,2.803,2.8054,2.804,2.8119,2.8104,2.8131,2.813,2.8144,2.8143,2.821,2.8164,2.8164,2.8164,2.8164,0,2.759,2.7635,2.7676,2.7709,2.776,2.7786,2.7835,2.7861,2.7897,2.7935,2.7949,2.7984,2.8016,2.8055,2.8075,2.8126,2.8138,2.815,2.8154,2.8147,2.8145,2.8161,2.8157,2.8166,2.8165,2.8165,2.8165,0,2.7626,2.7655,2.7715,2.7764,2.7778,2.7813,2.7855,2.7887,2.7911,2.7958,2.7971,2.8009,2.8055,2.8084,2.8144,2.8157,2.8213,2.8217,2.8198,2.82,2.8223,2.822,2.8301,2.8312,2.8261,2.8261,2.8262,0,2.7658,2.7693,2.7746,2.7772,2.7797,2.784,2.7869,2.7896,2.7925,2.7976,2.8002,2.805,2.8089,2.8163,2.8196,2.8241,2.8245,2.827,2.8252,2.8243,2.8242,2.8239,2.8242,2.8272,2.8273,2.8273,2.8274,0,2.7711,2.7724,2.7765,2.7812,2.7846,2.7884,2.7921,2.7942,2.7976,2.8008,2.8056,2.8087,2.8147,2.8194,2.8242,2.8268,2.8276,2.828,2.8288,2.8279,2.8266,2.8271,2.8204,2.8277,2.8277,2.8276,2.8276,2.8276,2.7744,2.7775,2.7817,2.7862,2.7894,2.7928,2.7961,2.7989,2.8029,2.8081,2.8095,2.8145,2.8186,2.8251,2.8278,2.8317,2.8313,2.8325,2.8328,2.833,2.8329,2.8262,2.8326,2.8326,2.8326,2.8326,2.8326,0,2.7796,2.7824,2.7866,2.7918,2.7953,2.7959,2.8001,2.8029,2.8073,2.8111,2.8149,2.8204,2.825,2.8286,2.8332,2.8357,2.8361,2.8368,2.8365,2.837,2.8331,2.8318,2.8363,2.8363,2.8363,2.8363,2.8363,2.8363,2.7827,2.7879,2.7897,2.7965,2.7992,2.8041,2.8064,2.8096,2.8126,2.8186,2.8224,2.8248,2.8285,2.8334,2.8376,2.8385,2.8401,2.8406,2.8416,2.8377,2.8373,2.8369,2.8357,2.841,2.841,2.8452,2.8452,2.8452]},{"header":{"parameterUnit":"m.s-1","parameterCategory":1,"la1":30.2991,"la2":30.254,"lo1":-89.0895,"lo2":-89.0444,"dy":0.0017,"dx":0.0017,"nx":28,"ny":28,"refTime":"2024-07-17T21:00:00:Z","depth":0,"parameterNumber":3,"parameterNumberName":"V-component_of_WINDS"},"data":[0,0,0,0,0,0,0,0,0,0,0,0,0,0,0,0,0,0,0,0,0,0,0,0,0,0,0,0,0,0,0,0,0,0,0,0,0,0,0,0,0,0,0,0,0,0,0,0,0,0,0,0,0,0,0,0,0,0,1.6,1.6002,0,1.6152,1.6154,1.6155,1.6179,1.6178,1.6176,1.6175,1.6331,1.6336,1.6341,0,0,0,0,0,0,0,0,0,0,0,0,0,1.573,1.5735,1.6,1.6002,1.6004,1.6152,1.6154,1.6156,1.6179,1.6178,1.6176,1.6174,1.6329,1.6335,1.6342,0,0,0,0,0,0,0,0,0,0,0,0,0,1.5861,1.5737,1.6,1.6033,1.6038,1.6151,1.6154,1.6156,1.618,1.6178,1.6175,1.6174,1.6327,1.6335,1.6343,1.6433,0,0,1.6367,1.6371,0,0,0,0,0,0,0,0,1.5854,1.5871,1.6027,1.6031,1.6037,1.6144,1.6116,1.6249,1.618,1.6126,1.6175,1.6173,1.627,1.6283,1.6316,1.644,1.6447,1.6368,1.6373,1.6376,1.6379,0,0,0,0,0,0,0,1.5845,1.5865,1.606,1.6029,1.6035,1.6041,1.6057,1.6141,1.6208,1.613,1.6132,1.615,1.6273,1.6308,1.632,1.6449,1.6368,1.6375,1.638,1.6383,1.6654,1.6657,0,0,0,0,0,0,1.5829,1.5857,1.6055,1.6065,1.5938,1.6047,1.6065,1.6112,1.6207,1.6219,1.6152,1.6151,1.6295,1.631,1.6325,1.6437,1.6376,1.6384,1.6389,1.6652,1.6655,1.6657,0,0,0,0,0,0,1.5824,1.5847,1.6049,1.5961,1.5988,1.6054,1.6106,1.6116,1.6151,1.6223,1.6235,1.6176,1.6294,1.6314,1.6406,1.6443,1.6388,1.6395,1.6649,1.6653,1.6656,1.6662,0,0,0,0,0,0,1.5816,1.5845,1.588,1.5962,1.5992,1.6128,1.6108,1.612,1.6165,1.6165,1.6248,1.626,1.6294,1.6394,1.6414,1.6453,1.6401,1.6646,1.6651,1.6655,1.6658,1.6665,1.667,0,0,0,0,0,1.5806,1.5876,1.5882,1.5906,1.6038,1.613,1.6147,1.6184,1.6168,1.6204,1.625,1.6258,1.6435,1.6403,1.6426,1.6468,1.6644,1.665,1.6655,1.6656,1.6664,1.667,0,0,0,0,0,0,1.5797,1.5887,1.5895,1.5993,1.6053,1.6133,1.618,1.6192,1.6258,1.6255,1.6299,1.6317,1.6407,1.6447,1.6409,1.656,1.6538,1.6548,1.6531,1.6539,1.6545,1.6534,1.6408,0,0,0,0,0,1.5806,1.5873,1.5949,1.6028,1.6058,1.6113,1.6155,1.6178,1.6243,1.6269,1.6321,1.6383,1.6453,1.6498,1.6566,1.6664,1.6682,1.6704,1.671,1.6714,1.6723,1.6777,1.6788,1.6675,1.6675,1.6675,0,0,1.5827,1.5884,1.5924,1.6028,1.6077,1.6146,1.6135,1.6208,1.6259,1.628,1.637,1.641,1.6482,1.6577,1.6622,1.6613,1.6758,1.6721,1.6724,1.6731,1.6783,1.6794,1.6804,1.6678,1.6678,1.6677,0,0,1.5899,1.5949,1.602,1.607,1.6145,1.6181,1.6198,1.6276,1.6304,1.6395,1.6411,1.6472,1.6592,1.6642,1.6683,1.6772,1.6782,1.6793,1.6825,1.6877,1.6886,1.6894,1.6926,1.6937,1.6801,1.6801,1.6801,0,1.5915,1.6018,1.6056,1.6128,1.6173,1.6194,1.6266,1.6313,1.6406,1.6436,1.6425,1.6574,1.6624,1.6731,1.6753,1.6785,1.6806,1.6785,1.6882,1.689,1.6898,1.693,1.6941,1.6802,1.6802,1.6802,1.6802,0,1.6034,1.6106,1.6155,1.6244,1.6294,1.6366,1.6414,1.646,1.6478,1.6516,1.6608,1.6668,1.6748,1.6775,1.6794,1.6885,1.6877,1.6873,1.6852,1.6909,1.6939,1.6952,1.6804,1.6803,1.6803,1.6803,0,0,1.6107,1.6214,1.6232,1.6272,1.6355,1.6411,1.6483,1.6562,1.6601,1.6664,1.6726,1.6825,1.6822,1.6868,1.6893,1.6939,1.7005,1.6929,1.6932,1.6942,1.7109,1.7112,1.7125,1.7011,1.7014,1.7016,1.7103,0,1.6189,1.6319,1.6354,1.6464,1.6531,1.655,1.6613,1.6671,1.6707,1.6769,1.6809,1.6879,1.6869,1.6897,1.6943,1.6987,1.704,1.6981,1.707,1.7073,1.7052,1.7141,1.7145,1.7224,1.7115,1.7117,1.7118,0,1.6303,1.6368,1.6485,1.6558,1.6588,1.6644,1.6718,1.6776,1.6841,1.6864,1.6916,1.6936,1.7011,1.6985,1.709,1.705,1.7088,1.7115,1.7119,1.713,1.71,1.7154,1.725,1.7262,1.7137,1.7135,1.7134,0,1.6345,1.6461,1.6546,1.658,1.6668,1.6707,1.6745,1.6808,1.6853,1.6917,1.6946,1.7019,1.7059,1.7114,1.7153,1.713,1.7254,1.7232,1.7276,1.7275,1.7303,1.73,1.7406,1.7325,1.7325,1.7325,1.7324,0,1.6434,1.6505,1.6566,1.6618,1.6698,1.6736,1.6814,1.6853,1.6909,1.6969,1.699,1.7045,1.7093,1.7155,1.7185,1.7267,1.7285,1.7306,1.7314,1.7305,1.7302,1.7331,1.7327,1.7328,1.7327,1.7326,1.7326,0,1.6495,1.6539,1.6632,1.6707,1.6728,1.6783,1.6847,1.6898,1.6934,1.701,1.703,1.7087,1.7161,1.7204,1.7298,1.7318,1.7409,1.7414,1.7388,1.7391,1.7433,1.7429,1.7562,1.7582,1.7486,1.7487,1.7488,0,1.6549,1.6604,1.6685,1.6726,1.6765,1.6831,1.6877,1.6916,1.6963,1.704,1.7082,1.7157,1.7219,1.7336,1.7386,1.7457,1.7465,1.7506,1.7476,1.7465,1.7466,1.7463,1.7468,1.7512,1.7513,1.7513,1.7514,0,1.6641,1.666,1.6724,1.6796,1.6849,1.6908,1.6966,1.6999,1.7048,1.7099,1.7174,1.7223,1.7317,1.7392,1.7467,1.7506,1.7519,1.7523,1.7537,1.753,1.7512,1.7523,1.7403,1.752,1.7519,1.7519,1.7519,1.7518,1.6702,1.6751,1.6815,1.6886,1.6933,1.6987,1.7039,1.7081,1.7144,1.7225,1.7244,1.7323,1.7386,1.7488,1.7529,1.7592,1.7585,1.7605,1.7611,1.7615,1.7617,1.7501,1.7605,1.7605,1.7605,1.7605,1.7605,0,1.6795,1.6837,1.6902,1.6982,1.7037,1.7043,1.7107,1.7153,1.7223,1.728,1.7341,1.7427,1.7499,1.7553,1.7627,1.7666,1.7674,1.7684,1.7683,1.7691,1.7618,1.7599,1.7677,1.7677,1.7677,1.7677,1.7677,1.7677,1.6851,1.6935,1.696,1.7068,1.7109,1.7187,1.7223,1.7272,1.7318,1.7414,1.7473,1.7508,1.7564,1.7642,1.7708,1.7722,1.7748,1.7758,1.7773,1.7704,1.7697,1.7689,1.7671,1.7763,1.7763,1.7841,1.7842,1.7842]}]]